Regional Weather Roundup
Issued by NWS

Home | Current Version | Previous Version | Graphics & Text | Print | Product List | Glossary On
Versions: 1 2 3 4 5 6 7 8 9 10 11 12 13 14 15 16 17 18 19 20 21 22 23 24 25 26 27 28 29 30 31 32 33 34 35 36 37 38 39 40 41 42 43 44 45 46 47 48 49 50
000
ASUS43 KMPX 310801
RWRMN
WEATHER ROUNDUP FOR MINNESOTA
NATIONAL WEATHER SERVICE TWIN CITIES/CHANHASSEN MN
300 AM CDT WED AUG 31 2016


NOTE: "FAIR" INDICATES FEW OR NO CLOUDS BELOW 12,000 FEET WITH NO
SIGNIFICANT WEATHER AND/OR OBSTRUCTIONS TO VISIBILITY. N/A MEANS
CURRENT SKY AND/OR WEATHER CONDITIONS ARE NOT AVAILABLE.

MNZ060>063-068>070-310900-
   Twin Cities Metro

CITY           SKY/WX    TMP DP  RH WIND       PRES   REMARKS
TWIN CITIES    CLEAR     63  53  70 CALM      30.19R
ST PAUL        CLEAR     59  54  83 W5        30.19S
CRYSTAL        CLEAR     58  52  80 CALM      30.18S
BLAINE         CLEAR     57  55  94 CALM      30.19R
LAKEVILLE      CLEAR     55  55 100 CALM      30.19S
EDEN PRAIRIE   CLEAR     61  56  83 N3        30.18S
LAKEVILLE      CLEAR     55  55 100 CALM      30.19S
SOUTH ST PAUL  CLEAR     61  56  84 CALM      30.18S
LAKE ELMO      FAIR      55  55 100 CALM      30.20R
$$
MNZ001>005-007-008-013>017-022>024-027-028-310900-
   Northwest Minnesota

CITY           SKY/WX    TMP DP  RH WIND       PRES   REMARKS
BEMIDJI        CLEAR     51  49  93 CALM      30.23S
HALLOCK        PTCLDY    50  46  87 CALM      30.24S
ROSEAU         CLEAR     52  46  82 N3        30.24S
WARROAD        PTCLDY    54  48  82 NW3       30.24S
THIEF RVR FALL CLEAR     55  50  83 N3        30.25R
CROOKSTON      CLEAR     54  50  87 CALM      30.23S
FOSSTON        CLEAR     48  46  93 CALM      30.24S
DETROIT LAKES  CLEAR     59  57  94 CALM      30.24S
MOORHEAD       CLEAR     55  54  94 CALM      30.23R
MAHNOMEN       FAIR      55  53  95 CALM      30.23S
$$
MNZ006-009>011-018-025>026-310900-
   North Central Minnesota

CITY           SKY/WX    TMP DP  RH WIND       PRES   REMARKS
BAUDETTE       CLEAR     49  48  97 W3        30.22S
FLAG ISLAND    PTCLDY    61  54  77 CALM      30.22S
INTL FALLS     CLEAR     48  46  93 NW5       30.20S
WASKISH        PTCLDY    48  46  93 CALM      30.22S
BIG FORK       PTCLDY    46  45  93 CALM      30.22R
LONGVILLE      CLEAR     50  48  93 CALM      30.22R
GRAND RAPIDS   CLEAR     50  50 100 CALM      30.23S FOG
CRANE LAKE     PTCLDY    45  45 100 CALM      30.21S
ORR            MOCLDY    48  46  93 CALM      30.18S
COOK           MOCLDY    46  46 100 CALM      30.20S
WALKER         FAIR      50  49  97 W3        30.22S
$$
MNZ012-019>021-037-310900-
   Northeast Minnesota

CITY           SKY/WX    TMP DP  RH WIND       PRES   REMARKS
DULUTH         CLEAR     55  50  83 N7        30.19S
ELY            PTCLDY    46  45  93 CALM      30.19S
HIBBING        PTCLDY    44  43  96 CALM      30.20S
EVELETH        PTCLDY    46  45  96 CALM      30.21S
DULUTH HARBOR  CLEAR     64  55  72 N10       30.18R
TWO HARBORS    CLEAR     59  52  77 CALM      30.17R
SILVER BAY     CLEAR     48  48 100 CALM      30.17S
GRAND MARAIS     N/A     60  52  74 N10       30.14S
G MARAIS ARPRT CLOUDY    46  43  87 N3        30.19R
$$
MNZ029>031-032-039>041-046>048-054>057-064-310900-
   West Central Minnesota

CITY           SKY/WX    TMP DP  RH WIND       PRES   REMARKS
FERGUS FALLS   CLEAR     59  55  88 NE3       30.23S
WHEATON        CLEAR     55  55 100 CALM      30.23S
MORRIS         CLEAR     59  55  88 CALM      30.21S
ALEXANDRIA     CLEAR     59  54  83 E5        30.23S
ELBOW LAKE     FAIR      62  59  92 CALM      30.22S
GLENWOOD       CLEAR     57  55  94 NE5       30.23S
APPLETON       CLEAR     57  54  88 CALM      30.21S
BENSON         CLEAR     54  52  94 CALM      30.21S
ORTONVILLE     CLEAR     61  54  77 CALM      30.22S
MADISON        PTCLDY    59  57  94 CALM      30.21S
WILLMAR        FAIR      61  57  88 NE3       30.23R
$$
MNZ033>034-036-042>043-049>051-058-059-310900-
   Central Minnesota

CITY           SKY/WX    TMP DP  RH WIND       PRES   REMARKS
ST CLOUD       CLEAR     54  54 100 CALM      30.20S
SAUK CENTRE    FAIR      55  55  98 CALM      30.22S
PAYNESVILLE    PTCLDY    54  54 100 CALM      30.22S
AITKIN         HAZE      50  45  81 CALM      30.20S VSB 3/4
PINE RIVER     CLEAR     50  50 100 CALM      30.24F
BRAINERD       CLEAR     52  51  97 CALM      30.22S
STAPLES        CLEAR     54  54 100 CALM      30.22S
LONG PRAIRIE   FAIR      54  52  94 CALM      30.22S
LITTLE FALLS   CLEAR     52  50  93 CALM      30.21S FOG
LITCHFIELD     CLEAR     61  57  88 CALM      30.22R
BUFFALO        CLEAR     58  54  85 CALM      30.21S
MAPLE LAKE     CLEAR     57  56  97 CALM      30.21S
HUTCHINSON     CLEAR     59  57  92 CALM      30.22R
$$
MNZ037-044-045-052-053-310900-
   East Central Minnesota

CITY           SKY/WX    TMP DP  RH WIND       PRES   REMARKS
PRINCETON      CLEAR     54  52  94 CALM      30.20S
MORA           CLEAR     54  52  94 CALM      30.22S
CAMBRIDGE      CLEAR     55  48  76 NW3       30.18S
RUSH CITY      MOCLDY    53  51  92 CALM      30.20S
MOOSE LAKE     CLEAR     50  48  93 CALM      30.18S
HINCKLEY       FAIR      52  52 100 CALM      30.20S
CLOQUET        CLEAR     50  46  87 NW3       30.20S
MCGREGOR       CLEAR     50  48  93 CALM      30.21S
$$
MNZ071>073-080-081-089-090-097-098-310900-
   Southwest Minnesota

CITY           SKY/WX    TMP DP  RH WIND       PRES   REMARKS
MONTEVIDEO     CLEAR     61  55  82 CALM      30.22F
GRANITE FALLS  CLEAR     57  56  96 W5        30.23R
CANBY          CLEAR     57  55  92 CALM      30.23S
MARSHALL       CLEAR     58  55  90 CALM      30.22R
REDWOOD FALLS  CLEAR     61  57  87 CALM      30.20R
OLIVIA         CLEAR     57  54  88 NE5       30.20S
WINDOM         CLEAR     55  54  94 CALM      30.22S
WORTHINGTON    CLEAR     56  54  93 CALM      30.23S
JACKSON        CLEAR     57  54  88 CALM      30.22S FOG
TRACY          CLEAR     60  56  87 CALM      30.22S
SLAYTON        CLEAR     57  55  94 CALM      30.23S
$$
MNZ065>067-074>077-082>085-091>093-310900-
   South Central Minnesota

CITY           SKY/WX    TMP DP  RH WIND       PRES   REMARKS
NEW ULM        CLEAR     61  57  88 CALM      30.20R
ST JAMES       CLEAR     55  55 100 CALM      30.21R
FAIRMONT       CLOUDY    57  55  93 CALM      30.21R
GLENCOE        CLEAR     59  59  99 CALM      30.20R
FARIBAULT      CLEAR     54  54 100 CALM      30.20S
OWATONNA       CLEAR     54  54 100 CALM      30.20S FOG
WASECA         CLEAR     54  52  94 N5        30.21S
ALBERT LEA     CLOUDY    57  55  94 CALM      30.20R
$$
MNZ078>079-086>088-094>096-310900-
   Southeast Minnesota

CITY           SKY/WX    TMP DP  RH WIND       PRES   REMARKS
ROCHESTER      CLOUDY    58  56  93 NW7       30.19S
RED WING       CLEAR     57  55  94 CALM      30.17S
STANTON        CLEAR     55  54  94 CALM      30.18S
DODGE CENTER   PTCLDY    55  54  94 N5        30.19S
WINONA         CLEAR     57  55  94 NW5       30.17R
AUSTIN         CLOUDY    57  55  94 N5        30.19R
PRESTON        PTCLDY    57  54  88 NW6       30.18S
$$
ABBREVIATIONS USED IN REMARKS
   TC - TEMPERATURES IN CELSIUS
  WCI - WIND CHILL INDEX
   HX - HEAT INDEX
  VSB - VISIBILITY
$$




USA.gov is the U.S. government's official web portal to all federal, state and local government web resources and services.